Location: Pallagorio
(39.3000°N, 16.9000°E)
Time: 18:28:19
(UTC+00:00)

ISS - Pass Details

Date: 24 January 2021
Orbit: 417 x 422 km, 51.6° (Epoch: 03 March)

Event Time Altitude Azimuth Distance (km) Brightness Sun altitude
Rises 17:43:57 0° 290° (WNW) 2,371 1.1 -19.4°
Reaches altitude 10° 17:47:07 10° 323° (NW) 1,509 -0.6 -20.0°
Maximum altitude 17:48:35 12° 348° (NNW) 1,381 -1.1 -20.2°
Enters shadow 17:48:50 12° 353° (N) 1,385 -1.2 -20.3°
